TimeCST,TemperatureF,Dew PointF,Humidity,Sea Level PressureIn,VisibilityMPH,Wind Direction,Wind SpeedMPH,Gust SpeedMPH,PrecipitationIn,Events,Conditions,WindDirDegrees,DateUTC
12:12 AM,10.4,5.0,79,29.91,10.0,Calm,Calm,-,N/A,,Clear,0,2013-01-07 06:12:00
12:31 AM,12.2,6.8,79,29.89,10.0,Calm,Calm,-,N/A,,Clear,0,2013-01-07 06:31:00
12:51 AM,14.0,6.8,73,29.90,10.0,SSW,5.8,-,N/A,,Clear,210,2013-01-07 06:51:00
1:12 AM,15.8,8.6,73,29.88,10.0,SSW,5.8,-,N/A,,Clear,200,2013-01-07 07:12:00
1:31 AM,14.0,6.8,73,29.87,10.0,SSW,5.8,-,N/A,,Clear,200,2013-01-07 07:31:00
1:51 AM,15.8,6.8,68,29.85,10.0,South,3.5,-,N/A,,Clear,190,2013-01-07 07:51:00
2:11 AM,15.8,8.6,73,29.83,10.0,South,6.9,-,N/A,,Clear,180,2013-01-07 08:11:00
2:31 AM,15.8,10.4,79,29.81,10.0,South,5.8,-,N/A,,Clear,180,2013-01-07 08:31:00
2:51 AM,15.8,10.4,79,29.79,10.0,SSW,5.8,-,N/A,,Clear,200,2013-01-07 08:51:00
3:11 AM,15.8,10.4,79,29.78,10.0,SSW,4.6,-,N/A,,Clear,200,2013-01-07 09:11:00
3:31 AM,15.8,10.4,79,29.77,10.0,WSW,4.6,-,N/A,,Clear,250,2013-01-07 09:31:00
3:51 AM,14.0,8.6,79,29.76,10.0,WSW,4.6,-,N/A,,Clear,240,2013-01-07 09:51:00
4:11 AM,15.8,8.6,73,29.75,10.0,SW,5.8,-,N/A,,Clear,230,2013-01-07 10:11:00
4:51 AM,17.6,10.4,73,29.74,10.0,SW,11.5,-,N/A,,Clear,220,2013-01-07 10:51:00
5:11 AM,17.6,10.4,73,29.73,10.0,SW,6.9,-,N/A,,Clear,230,2013-01-07 11:11:00
5:31 AM,17.6,10.4,73,29.72,10.0,SW,9.2,-,N/A,,Clear,230,2013-01-07 11:31:00
5:51 AM,19.4,12.2,74,29.72,10.0,WSW,10.4,-,N/A,,Clear,240,2013-01-07 11:51:00
6:12 AM,19.4,12.2,74,29.70,10.0,SW,11.5,-,N/A,,Clear,230,2013-01-07 12:12:00
6:31 AM,19.4,12.2,74,29.71,10.0,SW,10.4,-,N/A,,Clear,230,2013-01-07 12:31:00
6:51 AM,19.4,12.2,74,29.70,10.0,SW,10.4,-,N/A,,Clear,230,2013-01-07 12:51:00
7:11 AM,19.4,12.2,74,29.69,10.0,SW,9.2,-,N/A,,Clear,220,2013-01-07 13:11:00
7:31 AM,19.4,14.0,80,29.69,10.0,SW,9.2,-,N/A,,Clear,230,2013-01-07 13:31:00
7:52 AM,21.2,14.0,74,29.68,10.0,SW,10.4,-,N/A,,Scattered Clouds,220,2013-01-07 13:52:00
8:11 AM,21.2,15.8,80,29.69,10.0,SW,11.5,-,N/A,,Mostly Cloudy,230,2013-01-07 14:11:00
8:31 AM,23.0,15.8,74,29.70,10.0,SW,10.4,17.3,N/A,,Scattered Clouds,230,2013-01-07 14:31:00
8:52 AM,23.0,15.8,74,29.69,10.0,SW,10.4,16.1,N/A,,Clear,230,2013-01-07 14:52:00
9:11 AM,24.8,15.8,69,29.70,10.0,SW,10.4,18.4,N/A,,Clear,230,2013-01-07 15:11:00
9:31 AM,24.8,15.8,69,29.70,10.0,SW,11.5,17.3,N/A,,Clear,230,2013-01-07 15:31:00
9:52 AM,24.8,17.6,74,29.70,10.0,SW,16.1,20.7,N/A,,Clear,220,2013-01-07 15:52:00
10:11 AM,26.6,17.6,69,29.70,10.0,SW,16.1,-,N/A,,Clear,220,2013-01-07 16:11:00
10:31 AM,28.4,17.6,64,29.70,10.0,WSW,8.1,11.5,N/A,,Clear,240,2013-01-07 16:31:00
10:52 AM,30.2,19.4,64,29.70,10.0,SW,12.7,-,N/A,,Clear,230,2013-01-07 16:52:00
11:31 AM,32.0,19.4,60,29.68,10.0,SW,17.3,20.7,N/A,,Clear,230,2013-01-07 17:31:00
11:52 AM,33.8,21.2,60,29.67,10.0,SW,11.5,24.2,N/A,,Clear,230,2013-01-07 17:52:00
12:11 PM,35.6,21.2,56,29.66,10.0,WSW,12.7,23.0,N/A,,Clear,240,2013-01-07 18:11:00
1:11 PM,37.4,21.2,52,29.65,10.0,WSW,16.1,24.2,N/A,,Clear,240,2013-01-07 19:11:00
1:51 PM,39.2,21.2,49,29.66,10.0,WSW,15.0,28.8,N/A,,Clear,250,2013-01-07 19:51:00
2:12 PM,39.2,21.2,49,29.66,10.0,WSW,18.4,28.8,N/A,,Clear,240,2013-01-07 20:12:00
2:31 PM,37.4,21.2,52,29.66,10.0,SW,15.0,23.0,N/A,,Clear,230,2013-01-07 20:31:00
2:51 PM,37.4,21.2,52,29.67,10.0,SW,12.7,25.3,N/A,,Clear,230,2013-01-07 20:51:00
3:11 PM,37.4,21.2,52,29.67,10.0,SW,11.5,19.6,N/A,,Clear,230,2013-01-07 21:11:00
3:31 PM,37.4,23.0,56,29.68,10.0,SW,16.1,24.2,N/A,,Clear,230,2013-01-07 21:31:00
3:52 PM,35.6,21.2,56,29.68,10.0,WSW,12.7,20.7,N/A,,Clear,240,2013-01-07 21:52:00
4:11 PM,35.6,21.2,56,29.69,10.0,WSW,11.5,-,N/A,,Clear,240,2013-01-07 22:11:00
4:52 PM,35.6,21.2,56,29.71,10.0,WSW,9.2,-,N/A,,Clear,240,2013-01-07 22:52:00
5:11 PM,33.8,21.2,60,29.71,10.0,WSW,10.4,17.3,N/A,,Clear,240,2013-01-07 23:11:00
5:31 PM,33.8,21.2,60,29.72,10.0,WSW,11.5,16.1,N/A,,Clear,240,2013-01-07 23:31:00
5:52 PM,33.8,21.2,60,29.73,10.0,WSW,9.2,-,N/A,,Clear,240,2013-01-07 23:52:00
6:11 PM,33.8,21.2,60,29.74,10.0,WSW,10.4,-,N/A,,Clear,240,2013-01-08 00:11:00
6:31 PM,33.8,21.2,60,29.75,10.0,West,8.1,-,N/A,,Clear,260,2013-01-08 00:31:00
6:52 PM,33.8,21.2,60,29.76,10.0,WSW,9.2,17.3,N/A,,Clear,250,2013-01-08 00:52:00
7:11 PM,32.0,21.2,64,29.77,10.0,WSW,9.2,-,N/A,,Clear,250,2013-01-08 01:11:00
7:31 PM,32.0,21.2,64,29.77,10.0,West,8.1,-,N/A,,Clear,260,2013-01-08 01:31:00
7:51 PM,30.2,19.4,64,29.77,10.0,West,9.2,-,N/A,,Clear,260,2013-01-08 01:51:00
8:11 PM,30.2,19.4,64,29.78,10.0,West,6.9,-,N/A,,Clear,260,2013-01-08 02:11:00
8:32 PM,30.2,19.4,64,29.79,10.0,West,5.8,-,N/A,,Clear,280,2013-01-08 02:32:00
8:51 PM,30.2,19.4,64,29.79,10.0,West,6.9,-,N/A,,Clear,280,2013-01-08 02:51:00
9:11 PM,28.4,19.4,69,29.80,10.0,West,6.9,-,N/A,,Clear,260,2013-01-08 03:11:00
9:32 PM,28.4,19.4,69,29.81,10.0,West,5.8,-,N/A,,Clear,270,2013-01-08 03:32:00
9:51 PM,28.4,19.4,69,29.81,10.0,West,8.1,-,N/A,,Clear,270,2013-01-08 03:51:00
10:11 PM,28.4,19.4,69,29.82,10.0,West,6.9,-,N/A,,Clear,270,2013-01-08 04:11:00
10:32 PM,26.6,19.4,74,29.82,10.0,West,6.9,-,N/A,,Clear,260,2013-01-08 04:32:00
10:51 PM,26.6,19.4,74,29.83,10.0,West,5.8,-,N/A,,Clear,260,2013-01-08 04:51:00
11:11 PM,26.6,17.6,69,29.84,10.0,SW,4.6,-,N/A,,Clear,220,2013-01-08 05:11:00
11:32 PM,24.8,17.6,74,29.85,10.0,Calm,Calm,-,N/A,,Clear,0,2013-01-08 05:32:00
11:51 PM,24.8,17.6,74,29.85,10.0,SW,3.5,-,N/A,,Clear,230,2013-01-08 05:51:00